{"data":{"norad_id":66743,"intl_designator":"2025-276CF","name":"NUSAT-47","alt_names":[],"object_type":"PAYLOAD","status":"ACTIVE","operator":null,"country":"ARGN","launch_date":"2025-11-28","launch_site_code":"AFWTR","launch_vehicle":null,"mission":null,"orbit_class":"UNKNOWN","rcs_meters":null,"size_class":null,"mass_kg":null,"dimensions":null,"purposes":[],"wikipedia_slug":null,"has_3d_model":false,"image_url":null,"decayed_at":null,"tle_current":{"epoch":"2026-09-20T12:09:23.151744Z","epoch_age_seconds":117009,"freshness":"FRESH","line1":"1 66743U 25276CF  26263.50651796  .00003575  00000+0  16344-3 0  9996","line2":"2 66743  97.4108 335.6053 0002815  60.2372 299.9144 15.21187832 44912","mean_motion":15.21187832,"eccentricity":0.0002815,"inclination_deg":97.4108,"raan_deg":335.6053,"arg_perigee_deg":60.2372,"mean_anomaly_deg":299.9144,"bstar":0.00016344,"rev_number":4491,"period_min":94.662866064787,"perigee_km":500.31970948175,"apogee_km":504.19337104492,"semimajor_km":6880.3935402633,"source":"CELESTRAK","updated_at":"2026-09-21T09:00:16.176538Z"}}}